User: anonymous   Login
Location: Unspecified
(0.0000°N, 0.0000°E)
Time: 03:49:06
(UTC+01:00)
Language:

Delta 2 Rocket - Orbit

View from above orbital plane
View from above orbital plane
View from above satellite
View from above satellite

Ground track
Ground track

The orbit data is extracted from the following two-line orbital elements,

1 20453U 90008B   17344.86219751 +.00000598 +00000-0 +36546-4 0  9999
2 20453 035.6259 271.8369 0287627 198.4958 160.5116 14.83773387474453
Epoch (UTC): 10 December 2017 20:41:33
Eccentricity: 0.0287627
inclination: 35.6259°
perigee height: 416 km
apogee height: 818 km
right ascension of ascending node: 271.8369°
argument of perigee: 198.4958°
revolutions per day: 14.83773387
mean anomaly at epoch: 160.5116°
orbit number at epoch: 47445

The dashed part of the orbit path shows where the satellite is in the earth's shadow,  

DLR